Content
SEND FEEDBACK

Daily
Averages
Monthly
Summary
United States of America

DEDEDO, GUAM


Home > North America > United States > Guam
Elevation: 111 meters     Latitude: 13 33N     Longitude: 144 49E

WEATHER
 
SELECT A DAY
Number of Records: 209,165;   Date Range: 1/1/95 - 8/30/14
 
SHARE

PRINT THIS DATA

[ ← Previous Day ]
WEATHER ALMANAC - 24 MARCH, 2014
[ Next Day → ]
[ °F ]   °C
Weather ElementAverageHighLow
Temperature28.2 °C30.6 °C (11:54 am)25.6 °C (2:54 am)
Dewpoint22.4 °C23 °C (9:35 am)21.7 °C (10:54 am)
Humidity70.9 %84 % (2:54 am)59 % (2:54 pm)
Barometer1012.5 hPa1014.6 hPa (9:16 am)1010.5 hPa (3:54 pm)
Wind Speed22.7 km/h31.5 km/h (11:54 am)
Wind Gust42.6 km/h (10:54 am)
Weather ElementAverage
Visibility16.1 km
Wind DirectionENE (67.9 °)

Weather ElementTotal
Precipitation---
Cooling Degree Days9.8 (Base 18.3)
Growing Degree Days18.1 (Base 10)
Averaged from 29 records on 24 March, 2014
WEATHER CONDITIONS BREAKOUT
WIND DIRECTION BREAKOUT
WEATHER BY HOUR - 24 MARCH, 2014
[ °F ]   °C
Local TimeTemperatureDewpointHumidityBarometerVisibilityWind DirectionWind SpeedGust SpeedPrecipitationEventsConditions
1:54 AM26.1 °C22.8 °C82 %1012.5 hPa16.1 kmENE (60°)16.7 km/hPartly Cloudy
2:54 AM25.6 °C22.8 °C84 %1011.9 hPa16.1 kmENE (70°)16.7 km/hClear
3:54 AM25.6 °C22.8 °C84 %1011.9 hPa16.1 kmENE (60°)13 km/hClear
4:54 AM25.6 °C22.8 °C84 %1012.2 hPa16.1 kmENE (60°)13 km/hClear
5:54 AM25.6 °C22.8 °C84 %1012.9 hPa16.1 kmENE (60°)14.8 km/hScattered Clouds
6:54 AM26.1 °C22.8 °C82 %1013.2 hPa16.1 kmENE (60°)16.7 km/hClear
7:54 AM27.2 °C22.8 °C77 %1013.5 hPa16.1 kmENE (60°)18.5 km/hClear
8:54 AM28.3 °C22.8 °C72 %1013.9 hPa16.1 kmENE (60°)27.8 km/hScattered Clouds
9:16 AM29 °C22 °C66 %1014.6 hPa16.1 kmENE (70°)27.8 km/h37 km/hMostly Cloudy
9:35 AM29 °C23 °C70 %1014.2 hPa16.1 kmENE (60°)27.8 km/hMostly Cloudy
9:54 AM30 °C22.8 °C65 %1013.5 hPa16.1 kmEast (80°)25.9 km/h37 km/hMostly Cloudy
10:01 AM30 °C22 °C62 %1014.2 hPa16.1 kmENE (70°)27.8 km/h38.9 km/hMostly Cloudy
10:13 AM30 °C23 °C66 %1013.9 hPa16.1 kmENE (70°)24.1 km/h38.9 km/hMostly Cloudy
10:54 AM30 °C21.7 °C61 %1012.9 hPa16.1 kmENE (70°)29.6 km/h42.6 km/hClear
11:54 AM30.6 °C22.8 °C63 %1012.2 hPa16.1 kmEast (80°)31.5 km/h40.7 km/hPartly Cloudy
12:41 PM29 °C23 °C70 %1012.5 hPa16.1 kmENE (70°)29.6 km/h38.9 km/hMostly Cloudy
12:51 PM30 °C22 °C62 %1012.2 hPa16.1 kmEast (90°)31.5 km/h40.7 km/hMostly Cloudy
12:54 PM30 °C22.2 °C63 %1011.5 hPa16.1 kmEast (80°)31.5 km/h40.7 km/hMostly Cloudy
1:54 PM30 °C22.2 °C63 %1010.8 hPa16.1 kmEast (80°)22.2 km/h42.6 km/hScattered Clouds
2:54 PM30.6 °C21.7 °C59 %1010.8 hPa16.1 kmENE (60°)27.8 km/hMostly Cloudy
3:54 PM30 °C21.7 °C61 %1010.5 hPa16.1 kmENE (60°)27.8 km/h38.9 km/hPartly Cloudy
4:54 PM29.4 °C22.8 °C67 %1010.8 hPa16.1 kmEast (80°)31.5 km/h37 km/hScattered Clouds
5:54 PM28.3 °C22.2 °C69 %1011.2 hPa16.1 kmEast (80°)20.4 km/hPartly Cloudy
6:54 PM27.2 °C22.2 °C74 %1011.9 hPa16.1 kmENE (60°)16.7 km/hPartly Cloudy
7:54 PM27.2 °C21.7 °C72 %1012.5 hPa16.1 kmENE (70°)18.5 km/hPartly Cloudy
8:54 PM27.2 °C21.7 °C72 %1013.2 hPa16.1 kmENE (60°)18.5 km/hPartly Cloudy
9:54 PM27.2 °C22.2 °C74 %1013.2 hPa16.1 kmENE (60°)16.7 km/hPartly Cloudy
10:54 PM26.7 °C21.7 °C74 %1013.2 hPa16.1 kmENE (60°)14.8 km/hPartly Cloudy
11:54 PM26.7 °C21.7 °C74 %1013.2 hPa16.1 kmENE (70°)16.7 km/hPartly Cloudy
Hourly data recorded from PGUM, located 0 kilometers away from Dededo, Guam







STORIES FROM OUR PARTNERS